Date String (YYYY-MM-DD hh:mm:ss) UTC,Instrument flags,Ambient pressure (hPa),Sample flow (lpm),Bypass flow (lpm),Sample temperature (°C),Ambient temperature (°C),ASC tube jacket temperature (°C),LED temperature (°C),Box temperature (°C),Sample RH (%),Span deviation,Mass concentration (μg/m³),Mass concentration (μg/m³),Mass concentration (μg/m³)
DateTimeUTC,F1_M11,P_M11,Q1_M11,Q2_M11,T1_M11,T2_M11,T3_M11,T4_M11,T5_M11,U1_M11,ZSPAN_M11,X0_M11,X2_M11,X1_M11
2022-02-23 01:00:00,,0829.1,5.00,0.00,22.8,23.1,00.0,31.7,24.8,03.3,0000.8,0009.02,0005.34,0004.91
2022-02-23 01:01:00,,0829.1,4.99,0.00,22.8,22.9,00.0,31.7,24.7,03.3,0000.4,0009.47,0005.37,0004.91
2022-02-23 01:02:00,,0829.0,4.99,0.00,22.8,22.7,00.0,31.7,24.7,03.3,0000.2,0009.50,0005.38,0004.91
2022-02-23 01:03:00,,0829.1,5.00,0.00,22.8,22.5,00.0,31.7,24.6,03.3,-000.0,0009.59,0005.41,0004.92
2022-02-23 01:04:00,,0829.1,5.01,0.00,22.8,22.3,00.0,31.7,24.6,03.4,-000.2,0009.62,0005.43,0004.93
2022-02-23 01:05:00,,0829.2,4.98,0.00,22.8,22.2,00.0,31.7,24.5,03.3,0000.3,0009.61,0005.43,0004.95
2022-02-23 01:06:00,,0829.2,5.00,0.00,22.7,22.1,00.0,31.7,24.5,03.3,0000.7,0009.71,0005.42,0004.95
2022-02-23 01:07:00,,0829.2,5.01,0.00,22.7,22.0,00.0,31.7,24.4,03.3,0001.1,0009.71,0005.42,0004.95
2022-02-23 01:08:00,,0829.2,4.99,0.00,22.7,21.9,00.0,31.6,24.4,03.4,0002.2,0009.65,0005.42,0004.95
2022-02-23 01:09:00,,0829.2,5.00,0.00,22.6,21.8,00.0,31.6,24.3,03.4,0003.0,0009.62,0005.43,0004.96
2022-02-23 01:10:00,,0829.2,5.00,0.00,22.6,21.8,00.0,31.6,24.3,03.4,0002.8,0010.21,0005.45,0004.97
2022-02-23 01:11:00,,0829.2,5.00,0.00,22.6,21.7,00.0,31.6,24.3,03.4,0002.8,0011.04,0005.47,0004.98
2022-02-23 01:12:00,,0829.2,5.01,0.00,22.5,21.6,00.0,31.6,24.2,03.4,0003.0,0010.47,0005.48,0004.99
2022-02-23 01:13:00,,0829.2,5.00,0.00,22.5,21.6,00.0,31.6,24.2,03.4,0003.2,0010.38,0005.48,0005.01
2022-02-23 01:14:00,,0829.2,5.00,0.00,22.5,22.0,00.0,31.6,24.3,03.4,0003.3,0010.37,0005.48,0005.02
2022-02-23 01:15:00,,0829.4,4.99,0.00,22.6,22.7,00.0,31.6,24.5,03.4,0003.3,0010.33,0005.44,0005.00
2022-02-23 01:16:00,,0829.5,5.00,0.00,22.8,23.2,00.0,31.6,24.7,03.3,0003.0,0010.41,0005.43,0005.00
2022-02-23 01:17:00,,0829.4,5.00,0.00,22.8,23.0,00.0,31.6,24.8,03.2,0003.0,0010.37,0005.44,0004.99
2022-02-23 01:18:00,,0829.3,5.01,0.00,22.8,22.8,00.0,31.7,24.7,03.2,0003.2,0010.25,0005.41,0004.96
2022-02-23 01:19:00,,0829.3,4.98,0.00,22.8,22.6,00.0,31.7,24.7,03.2,0002.9,0010.37,0005.38,0004.93
2022-02-23 01:20:00,,0829.3,5.01,0.00,22.8,22.4,00.0,31.7,24.6,03.2,0002.7,0010.71,0005.37,0004.90
2022-02-23 01:21:00,,0829.5,5.00,0.00,22.8,22.3,00.0,31.7,24.5,03.2,0002.9,0010.09,0005.35,0004.89
2022-02-23 01:22:00,,0829.4,5.01,0.00,22.7,22.1,00.0,31.6,24.5,03.2,0003.2,0009.30,0005.33,0004.88
2022-02-23 01:23:00,,0829.3,4.98,0.00,22.7,22.0,00.0,31.6,24.4,03.2,0002.9,0009.23,0005.30,0004.88
2022-02-23 01:24:00,,0829.4,5.00,0.00,22.7,21.9,00.0,31.6,24.4,03.3,0003.2,0009.22,0005.29,0004.88
2022-02-23 01:25:00,,0829.6,5.01,0.00,22.6,21.8,00.0,31.6,24.4,03.3,0002.9,0009.19,0005.29,0004.87
2022-02-23 01:26:00,,0829.5,5.00,0.00,22.6,21.8,00.0,31.6,24.3,03.4,0003.6,0009.17,0005.31,0004.89
2022-02-23 01:27:00,,0829.5,5.00,0.00,22.6,21.7,00.0,31.6,24.3,03.4,0003.8,0009.16,0005.33,0004.89
2022-02-23 01:28:00,,0829.4,5.00,0.00,22.5,21.7,00.0,31.6,24.2,03.4,0004.1,0009.17,0005.34,0004.92
2022-02-23 01:29:00,,0829.2,5.00,0.00,22.5,21.6,00.0,31.6,24.2,03.5,0004.5,0009.10,0005.37,0004.96
2022-02-23 01:30:00,,0829.4,4.99,0.00,22.5,22.1,00.0,31.6,24.3,03.5,0004.5,0009.02,0005.39,0004.98
2022-02-23 01:31:00,,0829.4,5.02,0.00,22.7,22.8,00.0,31.6,24.5,03.4,0004.6,0008.57,0005.41,0005.01
2022-02-23 01:32:00,,0829.4,5.01,0.00,22.8,23.2,00.0,31.6,24.7,03.4,0004.9,0009.01,0005.41,0005.02
2022-02-23 01:33:00,,0829.5,4.99,0.00,22.8,23.1,00.0,31.6,24.8,03.4,0003.8,0009.21,0005.41,0005.02
2022-02-23 01:34:00,,0829.5,5.02,0.00,22.8,22.8,00.0,31.7,24.7,03.4,0002.7,0009.49,0005.42,0005.02
2022-02-23 01:35:00,,0829.5,4.99,0.00,22.8,22.6,00.0,31.7,24.7,03.4,0000.9,0009.53,0005.45,0005.03
2022-02-23 01:36:00,,0829.5,5.01,0.00,22.8,22.4,00.0,31.7,24.6,03.4,0004.2,0009.60,0005.47,0005.03
2022-02-23 01:37:00,,0829.5,5.00,0.00,22.7,22.2,00.0,31.6,24.5,03.5,0003.9,0009.70,0005.49,0005.05
2022-02-23 01:38:00,,0829.5,5.00,0.00,22.7,22.1,00.0,31.6,24.5,03.5,0004.2,0009.75,0005.48,0005.05
2022-02-23 01:39:00,,0829.5,5.01,0.00,22.7,22.0,00.0,31.6,24.4,03.5,0003.3,0010.44,0005.48,0005.05
2022-02-23 01:40:00,,0829.6,4.99,0.00,22.6,21.9,00.0,31.6,24.4,03.5,0000.6,0010.55,0005.50,0005.05
2022-02-23 01:41:00,,0829.5,5.01,0.00,22.6,21.8,00.0,31.6,24.3,03.5,0001.6,0010.63,0005.51,0005.06
2022-02-23 01:42:00,,0829.5,5.00,0.00,22.6,21.8,00.0,31.6,24.3,03.5,0000.9,0010.68,0005.51,0005.08
2022-02-23 01:43:00,,0829.5,4.99,0.00,22.6,21.7,00.0,31.6,24.3,03.5,0000.7,0010.19,0005.51,0005.08
2022-02-23 01:44:00,,0829.5,4.99,0.00,22.5,21.6,00.0,31.6,24.2,03.6,0001.3,0010.02,0005.51,0005.09
2022-02-23 01:45:00,,0829.6,5.00,0.00,22.5,21.6,00.0,31.5,24.2,03.6,0001.6,0010.19,0005.53,0005.08
2022-02-23 01:46:00,,0829.6,5.00,0.00,22.5,22.0,00.0,31.6,24.3,03.6,0001.6,0010.53,0005.52,0005.08
2022-02-23 01:47:00,,0829.6,5.00,0.00,22.6,22.7,00.0,31.6,24.5,03.6,0001.5,0010.59,0005.52,0005.08
2022-02-23 01:48:00,,0829.5,5.00,0.00,22.8,23.2,00.0,31.6,24.7,03.6,0001.9,0010.45,0005.48,0005.07
2022-02-23 01:49:00,,0829.5,5.00,0.00,22.8,23.0,00.0,31.6,24.7,03.6,0002.1,0010.24,0005.46,0005.05
2022-02-23 01:50:00,,0829.6,5.00,0.00,22.8,22.7,00.0,31.6,24.7,03.6,0002.4,0009.52,0005.45,0005.06
2022-02-23 01:51:00,,0829.8,5.01,0.00,22.8,22.5,00.0,31.6,24.6,03.6,0002.1,0009.63,0005.42,0005.05
2022-02-23 01:52:00,,0829.8,5.01,0.00,22.7,22.3,00.0,31.6,24.5,03.6,0001.6,0010.18,0005.41,0005.04
2022-02-23 01:53:00,,0829.8,4.98,0.00,22.7,22.2,00.0,31.6,24.5,03.6,0002.4,0010.10,0005.37,0005.00
2022-02-23 01:54:00,,0829.7,5.00,0.00,22.7,22.0,00.0,31.6,24.4,03.6,0002.3,0010.14,0005.37,0004.99
2022-02-23 01:55:00,,0829.6,5.00,0.00,22.7,21.9,00.0,31.6,24.4,03.6,0002.2,0010.17,0005.35,0004.97
2022-02-23 01:56:00,,0829.6,5.00,0.00,22.6,21.8,00.0,31.6,24.3,03.6,0001.7,0009.66,0005.32,0004.97
2022-02-23 01:57:00,,0829.7,5.00,0.00,22.6,21.8,00.0,31.6,24.3,03.6,0001.5,0009.37,0005.30,0004.96
2022-02-23 01:58:00,,0829.7,5.00,0.00,22.6,21.7,00.0,31.6,24.3,03.6,0001.2,0009.14,0005.26,0004.94
2022-02-23 01:59:00,,0829.7,5.02,0.00,22.5,21.6,00.0,31.6,24.2,03.6,0001.2,0009.15,0005.25,0004.92
